| time (UTC) | temp F | wind direction | speed MPH | gust MPH | rain 1hr in | rain 24hr in | rain mn in | humidity % | barometer mb |
| 20260831191505 | 75 | 83 | 7.0 | 12.0 | 0.00 | 0.28 | 0.18 | 92 | 1013.0 |
| 20260831190010 | 74 | 195 | 4.0 | 10.0 | 0.00 | 0.28 | 0.18 | 92 | 1012.9 |
| 20260831184505 | 73 | 240 | 3.0 | 12.0 | 0.00 | 0.28 | 0.18 | 92 | 1013.1 |
| 20260831183003 | 73 | 145 | 4.0 | 10.0 | 0.00 | 0.28 | 0.18 | 92 | 1012.9 |
| 20260831181502 | 74 | 145 | 4.0 | 9.0 | 0.00 | 0.28 | 0.18 | 93 | 1013.0 |
| 20260831180001 | 74 | 176 | 4.0 | 6.0 | 0.00 | 0.28 | 0.18 | 93 | 1013.2 |
| 20260831174501 | 74 | 138 | 3.0 | 7.0 | 0.00 | 0.28 | 0.18 | 93 | 1013.3 |
| 20260831173101 | 74 | 104 | 0.0 | 6.0 | 0.00 | 0.28 | 0.18 | 93 | 1013.7 |
| 20260831171557 | 73 | 68 | 1.0 | 5.0 | 0.00 | 0.28 | 0.18 | 93 | 1013.5 |
| 20260831170058 | 73 | 69 | 1.0 | 7.0 | 0.02 | 0.28 | 0.18 | 93 | 1013.2 |
| 20260831164557 | 73 | 123 | 1.0 | 5.0 | 0.05 | 0.28 | 0.18 | 93 | 1013.2 |
| 20260831163054 | 73 | 45 | 3.0 | 6.0 | 0.07 | 0.28 | 0.18 | 93 | 1012.9 |
| 20260831161554 | 73 | 13 | 3.0 | 6.0 | 0.10 | 0.28 | 0.18 | 93 | 1013.1 |
| 20260831160049 | 72 | 87 | 3.0 | 8.0 | 0.09 | 0.27 | 0.16 | 93 | 1012.5 |
| 20260831154548 | 72 | 53 | 3.0 | 6.0 | 0.06 | 0.24 | 0.13 | 93 | 1012.8 |
| 20260831153047 | 72 | 36 | 0.0 | 3.0 | 0.05 | 0.22 | 0.11 | 93 | 1013.1 |
| 20260831151541 | 71 | 128 | 1.0 | 9.0 | 0.08 | 0.19 | 0.08 | 92 | 1013.0 |
| 20260831150038 | 71 | 182 | 7.0 | 13.0 | 0.07 | 0.18 | 0.07 | 92 | 1012.7 |
| 20260831144533 | 72 | 160 | 3.0 | 16.0 | 0.07 | 0.18 | 0.07 | 91 | 1012.5 |
| 20260831143030 | 73 | 160 | 6.0 | 17.0 | 0.06 | 0.17 | 0.06 | 89 | 1012.3 |
| 20260831141525 | 78 | 158 | 8.0 | 15.0 | 0.00 | 0.11 | 0.00 | 73 | 1011.8 |
| 20260831140022 | 78 | 105 | 6.0 | 18.0 | 0.00 | 0.11 | 0.00 | 72 | 1011.3 |
| 20260831134518 | 79 | 204 | 5.0 | 15.0 | 0.00 | 0.11 | 0.00 | 69 | 1010.9 |
| 20260831133027 | 81 | 148 | 5.0 | 11.0 | 0.00 | 0.11 | 0.00 | 64 | 1010.5 |
| 20260831131517 | 80 | 115 | 4.0 | 9.0 | 0.00 | 0.11 | 0.00 | 64 | 1010.1 |
| 20260831130011 | 80 | 128 | 1.0 | 6.0 | 0.00 | 0.11 | 0.00 | 65 | 1009.7 |
| 20260831124510 | 80 | 222 | 1.0 | 6.0 | 0.00 | 0.11 | 0.00 | 66 | 1009.7 |
| 20260831123015 | 80 | 235 | 2.0 | 7.0 | 0.00 | 0.11 | 0.00 | 68 | 1009.6 |
| 20260831121506 | 80 | 344 | 0.0 | 6.0 | 0.00 | 0.11 | 0.00 | 65 | 1009.3 |
| 20260831120006 | 80 | 160 | 1.0 | 5.0 | 0.00 | 0.11 | 0.00 | 66 | 1008.9 |
| 20260831114502 | 80 | 232 | 2.0 | 7.0 | 0.00 | 0.11 | 0.00 | 67 | 1008.8 |
| 20260831113103 | 80 | 167 | 0.0 | 3.0 | 0.00 | 0.11 | 0.00 | 62 | 1008.6 |
| 20260831111600 | 81 | 84 | 1.0 | 4.0 | 0.00 | 0.11 | 0.00 | 60 | 1008.2 |
| 20260831104611 | 81 | 22 | 2.0 | 4.0 | 0.00 | 0.11 | 0.00 | 60 | 1008.0 |
| 20260831103058 | 81 | 332 | 2.0 | 4.0 | 0.00 | 0.11 | 0.00 | 59 | 1007.4 |
| 20260831101559 | 81 | 41 | 2.0 | 6.0 | 0.00 | 0.11 | 0.00 | 59 | 1007.1 |
| 20260831100113 | 81 | 89 | 1.0 | 3.0 | 0.00 | 0.11 | 0.00 | 59 | 1007.3 |
| 20260831094555 | 81 | 340 | 2.0 | 6.0 | 0.00 | 0.11 | 0.00 | 59 | 1007.4 |
| 20260831093054 | 81 | 35 | 2.0 | 8.0 | 0.00 | 0.11 | 0.00 | 59 | 1007.7 |
| 20260831091551 | 80 | 35 | 4.0 | 8.0 | 0.00 | 0.11 | 0.00 | 61 | 1007.8 |
| 20260831090155 | 80 | 58 | 5.0 | 10.0 | 0.00 | 0.11 | 0.00 | 63 | 1008.0 |
| 20260831084558 | 80 | 46 | 2.0 | 10.0 | 0.00 | 0.11 | 0.00 | 64 | 1008.2 |
| 20260831083048 | 80 | 9 | 8.0 | 13.0 | 0.00 | 0.11 | 0.00 | 65 | 1008.4 |
| 20260831081547 | 81 | 39 | 4.0 | 11.0 | 0.00 | 0.11 | 0.00 | 62 | 1008.3 |
| 20260831080055 | 81 | 35 | 5.0 | 7.0 | 0.00 | 0.11 | 0.00 | 65 | 1008.5 |
| 20260831074543 | 81 | 339 | 2.0 | 9.0 | 0.00 | 0.11 | 0.00 | 69 | 1008.5 |
| 20260831073039 | 81 | 352 | 7.0 | 12.0 | 0.00 | 0.11 | 0.00 | 68 | 1008.2 |
| 20260831071537 | 81 | 12 | 8.0 | 16.0 | 0.00 | 0.11 | 0.00 | 69 | 1008.3 |
| 20260831070037 | 81 | 35 | 9.0 | 16.0 | 0.00 | 0.11 | 0.00 | 71 | 1008.0 |
| 20260831064532 | 79 | 319 | 5.0 | 17.0 | 0.00 | 0.11 | 0.11 | 85 | 1007.5 |
| 20260831063033 | 77 | 39 | 8.0 | 14.0 | 0.00 | 0.11 | 0.11 | 91 | 1007.3 |
| 20260831061531 | 75 | 314 | 6.0 | 18.0 | 0.00 | 0.11 | 0.11 | 91 | 1006.9 |
| 20260831060029 | 74 | 347 | 4.0 | 9.0 | 0.02 | 0.11 | 0.11 | 92 | 1007.0 |
| 20260831054529 | 74 | 226 | 4.0 | 10.0 | 0.02 | 0.11 | 0.11 | 92 | 1006.4 |
| 20260831053030 | 74 | 300 | 5.0 | 12.0 | 0.02 | 0.11 | 0.11 | 91 | 1006.4 |
| 20260831051525 | 75 | 166 | 1.0 | 11.0 | 0.07 | 0.11 | 0.11 | 91 | 1006.1 |
| 20260831050025 | 76 | 236 | 7.0 | 13.0 | 0.09 | 0.09 | 0.09 | 91 | 1006.7 |
| 20260831044525 | 75 | 256 | 7.0 | 17.0 | 0.09 | 0.09 | 0.09 | 91 | 1007.0 |
| 20260831043023 | 75 | 214 | 10.0 | 27.0 | 0.09 | 0.09 | 0.09 | 90 | 1006.5 |
| 20260831041518 | 78 | 201 | 9.0 | 19.0 | 0.03 | 0.03 | 0.03 | 86 | 1006.6 |
| 20260831040017 | 90 | 172 | 7.0 | 18.0 | 0.00 | 0.00 | 0.00 | 47 | 1006.2 |
| 20260831034519 | 93 | 30 | 10.0 | 20.0 | 0.00 | 0.00 | 0.00 | 42 | 1006.0 |
| 20260831033013 | 100 | 130 | 8.0 | 21.0 | 0.00 | 0.00 | 0.00 | 32 | 1005.6 |
| 20260831031518 | 100 | 352 | 0.0 | 3.0 | 0.00 | 0.00 | 0.00 | 31 | 1004.8 |
| 20260831030011 | 100 | 279 | 0.0 | 3.0 | 0.00 | 0.00 | 0.00 | 31 | 1004.6 |
| 20260831024512 | 100 | 305 | 1.0 | 5.0 | 0.00 | 0.00 | 0.00 | 31 | 1004.3 |
| 20260831023013 | 100 | 277 | 0.0 | 4.0 | 0.00 | 0.00 | 0.00 | 31 | 1004.2 |
| 20260831021510 | 100 | 238 | 0.0 | 4.0 | 0.00 | 0.00 | 0.00 | 30 | 1003.8 |
| 20260831020009 | 101 | 281 | 0.0 | 3.0 | 0.00 | 0.00 | 0.00 | 30 | 1003.6 |
| 20260831014513 | 102 | 158 | 1.0 | 3.0 | 0.00 | 0.00 | 0.00 | 29 | 1003.4 |
| 20260831013009 | 103 | 148 | 1.0 | 6.0 | 0.00 | 0.00 | 0.00 | 29 | 1003.1 |
| 20260831011513 | 103 | 344 | 1.0 | 5.0 | 0.00 | 0.00 | 0.00 | 28 | 1003.1 |
| 20260831010014 | 104 | 145 | 0.0 | 2.0 | 0.00 | 0.00 | 0.00 | 27 | 1003.3 |
| 20260831004505 | 104 | 350 | 4.0 | 6.0 | 0.00 | 0.00 | 0.00 | 27 | 1003.4 |
| 20260831003004 | 106 | 148 | 0.0 | 6.0 | 0.00 | 0.00 | 0.00 | 26 | 1003.4 |
| 20260831001503 | 105 | 150 | 1.0 | 4.0 | 0.00 | 0.00 | 0.00 | 27 | 1003.4 |
| 20260831000002 | 105 | 9 | 0.0 | 4.0 | 0.00 | 0.00 | 0.00 | 27 | 1003.5 |
| 20260830234501 | 106 | 352 | 3.0 | 8.0 | 0.00 | 0.00 | 0.00 | 26 | 1003.5 |
| 20260830233107 | 105 | 120 | 1.0 | 8.0 | 0.00 | 0.00 | 0.00 | 26 | 1003.6 |
| 20260830231607 | 106 | 255 | 4.0 | 6.0 | 0.00 | 0.00 | 0.00 | 26 | 1003.9 |
| 20260830230055 | 105 | 187 | 2.0 | 6.0 | 0.00 | 0.00 | 0.00 | 26 | 1004.2 |
| 20260830224610 | 106 | 124 | 2.0 | 7.0 | 0.00 | 0.00 | 0.00 | 26 | 1004.4 |
| 20260830223054 | 107 | 259 | 2.0 | 7.0 | 0.00 | 0.00 | 0.00 | 25 | 1004.7 |
| 20260830221551 | 106 | 317 | 0.0 | 3.0 | 0.00 | 0.00 | 0.00 | 26 | 1005.0 |
| 20260830220053 | 104 | 94 | 2.0 | 5.0 | 0.00 | 0.00 | 0.00 | 28 | 1005.2 |
| 20260830214552 | 104 | 319 | 4.0 | 7.0 | 0.00 | 0.00 | 0.00 | 28 | 1005.7 |
| 20260830213039 | 105 | 200 | 1.0 | 7.0 | 0.00 | 0.00 | 0.00 | 27 | 1006.0 |
| 20260830211540 | 103 | 112 | 1.0 | 6.0 | 0.00 | 0.00 | 0.00 | 28 | 1006.3 |
| 20260830210036 | 106 | 299 | 1.0 | 8.0 | 0.00 | 0.00 | 0.00 | 26 | 1006.6 |
| 20260830204536 | 106 | 224 | 2.0 | 8.0 | 0.00 | 0.00 | 0.00 | 26 | 1006.9 |
| 20260830203032 | 105 | 323 | 0.0 | 6.0 | 0.00 | 0.00 | 0.00 | 27 | 1007.1 |
| 20260830201531 | 105 | 311 | 0.0 | 6.0 | 0.00 | 0.00 | 0.00 | 27 | 1007.5 |
| 20260830200030 | 105 | 180 | 3.0 | 6.0 | 0.00 | 0.00 | 0.00 | 28 | 1007.7 |
| 20260830194528 | 103 | 288 | 3.0 | 7.0 | 0.00 | 0.00 | 0.00 | 29 | 1007.8 |
| 20260830193026 | 103 | 349 | 0.0 | 7.0 | 0.00 | 0.00 | 0.00 | 29 | 1008.0 |